TimeEDT,TemperatureF,Dew PointF,Humidity,Sea Level PressureIn,VisibilityMPH,Wind Direction,Wind SpeedMPH,Gust SpeedMPH,PrecipitationIn,Events,Conditions,WindDirDegrees,DateUTC
12:53 AM,60.1,57.9,93,29.60,9.0,South,5.8,-,N/A,,Overcast,190,2012-10-16 04:53:00
1:06 AM,60.8,57.2,88,29.60,9.0,SW,6.9,-,N/A,,Overcast,220,2012-10-16 05:06:00
1:53 AM,60.1,57.0,90,29.60,9.0,Calm,Calm,-,0.00,,Overcast,0,2012-10-16 05:53:00
2:30 AM,59.0,57.2,94,29.56,8.0,Calm,Calm,-,N/A,,Mostly Cloudy,0,2012-10-16 06:30:00
2:53 AM,59.0,57.0,93,29.56,6.0,Calm,Calm,-,N/A,,Mostly Cloudy,0,2012-10-16 06:53:00
3:17 AM,59.0,57.2,94,29.55,8.0,Calm,Calm,-,N/A,,Overcast,0,2012-10-16 07:17:00
3:53 AM,59.0,57.0,93,29.54,6.0,Calm,Calm,-,N/A,,Overcast,0,2012-10-16 07:53:00
4:51 AM,57.2,55.4,94,29.53,2.5,SE,3.5,-,0.00,,Overcast,140,2012-10-16 08:51:00
4:53 AM,57.9,55.9,93,29.53,2.5,SE,3.5,-,0.00,,Overcast,140,2012-10-16 08:53:00
5:07 AM,57.2,55.4,94,29.53,3.0,Calm,Calm,-,N/A,,Overcast,0,2012-10-16 09:07:00
5:53 AM,57.9,55.9,93,29.52,6.0,Calm,Calm,-,0.01,Rain,Light Rain,0,2012-10-16 09:53:00
6:00 AM,57.2,55.4,94,29.52,5.0,Calm,Calm,-,0.00,Rain,Light Rain,0,2012-10-16 10:00:00
6:23 AM,57.2,55.4,94,29.52,5.0,Calm,Calm,-,0.02,Rain,Light Rain,0,2012-10-16 10:23:00
6:53 AM,57.9,55.0,90,29.51,10.0,Variable,5.8,-,0.03,Rain,Light Rain,0,2012-10-16 10:53:00
7:30 AM,57.2,53.6,88,29.51,10.0,Calm,Calm,-,0.00,Rain,Light Rain,0,2012-10-16 11:30:00
7:40 AM,55.4,53.6,94,29.51,10.0,Calm,Calm,-,0.01,Rain,Light Rain,0,2012-10-16 11:40:00
7:49 AM,55.4,53.6,94,29.52,8.0,Calm,Calm,-,0.01,Rain,Light Rain,0,2012-10-16 11:49:00
8:53 AM,55.0,52.0,89,29.51,10.0,Calm,Calm,-,0.02,,Overcast,0,2012-10-16 12:53:00
9:28 AM,55.4,51.8,88,29.52,10.0,NW,4.6,-,N/A,,Overcast,320,2012-10-16 13:28:00
9:44 AM,55.4,51.8,88,29.52,7.0,Calm,Calm,-,0.00,Rain,Light Rain,0,2012-10-16 13:44:00
9:53 AM,55.0,52.0,89,29.53,6.0,Calm,Calm,-,0.00,Rain,Light Rain,0,2012-10-16 13:53:00
10:26 AM,55.4,51.8,88,29.52,10.0,Variable,4.6,-,0.01,Rain,Light Rain,0,2012-10-16 14:26:00
10:34 AM,53.6,51.8,94,29.53,7.0,WNW,8.1,-,0.01,Rain,Light Rain,300,2012-10-16 14:34:00
10:42 AM,51.8,48.2,88,29.54,6.0,WNW,8.1,-,0.02,Rain,Light Rain,300,2012-10-16 14:42:00
10:53 AM,51.1,46.9,86,29.54,6.0,Variable,3.5,-,0.02,Rain,Light Rain,0,2012-10-16 14:53:00
11:53 AM,50.0,44.1,80,29.56,10.0,Variable,5.8,-,0.00,,Overcast,0,2012-10-16 15:53:00
12:53 PM,51.1,43.0,74,29.56,10.0,Variable,4.6,-,0.00,,Overcast,0,2012-10-16 16:53:00
1:53 PM,51.1,41.0,68,29.56,10.0,Variable,6.9,-,N/A,,Overcast,0,2012-10-16 17:53:00
2:53 PM,51.1,39.0,63,29.58,10.0,Variable,3.5,-,N/A,,Overcast,0,2012-10-16 18:53:00
3:53 PM,51.1,37.0,59,29.62,10.0,Variable,5.8,-,N/A,,Mostly Cloudy,0,2012-10-16 19:53:00
4:53 PM,48.9,34.0,56,29.67,10.0,Variable,6.9,-,N/A,,Scattered Clouds,0,2012-10-16 20:53:00
5:53 PM,46.0,33.1,61,29.71,10.0,Variable,6.9,-,N/A,,Partly Cloudy,0,2012-10-16 21:53:00
6:53 PM,45.0,34.0,65,29.75,10.0,Calm,Calm,-,N/A,,Mostly Cloudy,0,2012-10-16 22:53:00
7:53 PM,39.9,36.0,86,29.78,10.0,West,3.5,-,N/A,,Partly Cloudy,270,2012-10-16 23:53:00
8:53 PM,39.0,35.1,86,29.81,10.0,Calm,Calm,-,N/A,,Clear,0,2012-10-17 00:53:00
9:53 PM,37.0,34.0,89,29.82,10.0,Calm,Calm,-,N/A,,Clear,0,2012-10-17 01:53:00
10:53 PM,37.0,33.1,86,29.83,10.0,Calm,Calm,-,N/A,,Clear,0,2012-10-17 02:53:00
11:53 PM,35.1,33.1,92,29.84,10.0,Calm,Calm,-,N/A,,Clear,0,2012-10-17 03:53:00